Location: Hilton Head Island
(32.2163°N, 80.7526°W)
Time: 03:22:59
(UTC-04:00)

Vanguard 1 - Pass Details

Date: 16 February 2026
Orbit: 653 x 3818 km, 34.2° (Epoch: 9 March)

Event Time Altitude Azimuth Distance (km) Brightness Sun altitude
Rises 21:01:36 0° 288° (WNW) 6,645 15.3 -36.8°
Reaches altitude 10° 21:05:26 10° 286° (WNW) 5,945 14.8 -37.6°
Maximum altitude 21:26:00 72° 208° (SSW) 3,917 12.8 -41.9°
Enters shadow 21:32:18 58° 151° (SSE) 4,217 12.8 -43.2°
Drops below altitude 10° 21:48:26 10° 128° (SE) 6,382 - -46.4°
Sets 21:52:46 0° 126° (SE) 7,127 - -47.3°
